FENGYUN 1C DEB, 35108

Orbit data source: Space-Track

FENGYUN 1C DEB, 35108 is space debris in SSO originally from a launch on Mon, 10 May 1999 UTC launched from the Taiyaun Space Center, China (TSC). Fengyun 1C debris stems from the Chinese weather satellite Fengyun-1C, which was intentionally destroyed by a Chinese anti-satellite missile in 2007. This event dramatically increased the amount of space debris, with thousands of trackable fragments posing hazards to satellites and human spaceflight. The Fengyun 1C debris cloud has become a focal point in discussions about space sustainability and the need for international regulations to prevent the creation of new debris.

Loading next visibility...
Identifier
35108, 1999-025DKL
Orbit
SSO
Country
Flag of CNCN / PRC
Related business
Manufacturer
Unknown
Mission
Spacecraft
Bus & Motor
Unknown
Mass
Unknown
Launch date (UTC)
1999-05-10 (27 years ago)
Launch vehicle
Unknown
Launch site
Taiyaun Space Center, China (TSC)
Object type
Payload
Rocket body
Debris
Shape & HBR
Unknown shape, 0.1 m
Radar Cross Section
Small (<0.1 m²)

Expand to show TLE details & history
Last TLE update: 1 week ago

TLE from 1 week ago
0 FENGYUN 1C DEB
1 35108U 99025DKL 26199.26462209  .00000364  00000-0  22379-3 0  9999
2 35108  98.8095 194.3095 0134132 168.8748 191.5439 14.07157654922976
Epoch: 2026-07-18T06:21Z
TLE epoch observation values (Epoch: 2026-07-18T06:21:03.348Z)
Latitude
0.00004°
Longitude
162.96568°
Altitude
967.322 km
Speed
7.319 km/s
True Right ascension
12h 57m 14s
True Declination
0° 00' 00"
Sunlit
Object was in daylight at epoch
Visualization orbit readout
Latitude
Unknown
Longitude
Unknown
Altitude
Unknown
Speed
Unknown
Apparent Right ascension
Unknown
Apparent Declination
Unknown
Sunlit
N/A
Visualization observer readout
Local Sidereal Time
20:29:51
Azimuth
Unknown
Elevation
Unknown
Doppler factor
Unknown
Orbital elements
Apogee altitude
963.465 km
Perigee altitude
769.123 km
Semi-major axis
7,244.431 km
Eccentricity
0.01341
Inclination
98.8095°
RAAN
194.3095°
Arg. of periapsis
168.8748°
True anomaly
191.24129°
Mean anomaly
191.5439°
Eccentric anomaly
191.3921°
Mean motion
3.51995 °/min
Orbital period
102.27 mins
BSTAR
0.00022379
Loading maneuver chart data...
Computing Atmospheric mass density...

Documentation

Showing up to 5 results
|